Location: ???????
(56.2167°N, 38.0500°E)
Time: 04:59:13
(UTC+00:00)

BREEZE-M DEB (TANK) - Pass Details

Date: 19 May 2025
Orbit: 282 x 12173 km, 49.5° (Epoch: 19 June)

Event Time Altitude Azimuth Distance (km) Brightness Sun altitude
Rises 20:49:35 0° 283° (WNW) 7,987 8.5 -13.5°
Reaches altitude 10° 20:57:15 10° 277° (W) 5,113 7.4 -13.6°
Maximum altitude 21:06:44 32° 220° (SW) 1,587 4.3 -13.7°
Enters shadow 21:09:00 21° 173° (S) 1,550 3.9 -13.7°
